QPF
0.00 0.00 0.00 0.00 0.00 0.00 0.01 0.03 0.06 0.07 0.06 0.03 0.01 0.01 0.01 0.03 0.04 0.03 0.03 0.02 0.01 0.01 0.00 0.00 0.00 0.00 0.00 0.00 0.00 0.00 0.00 0.00 0.00 0.00 0.00 0.00 0.00 0.00 0.00 0.00 0.00 0.00 0.00 0.00 0.00 0.00 0.00 0.00 0.00
0.00 0.00 0.00 0.00 0.00 0.00 0.01 0.04 0.08 0.10 0.10 0.05 0.02 0.02 0.03 0.05 0.03 0.02 0.02 0.01 0.00 0.00 0.00 0.00 0.00 0.00 0.00 0.00 0.00 0.00 0.00 0.00 0.00 0.00 0.00 0.00 0.00 0.00 0.00 0.00 0.00 0.00 0.00 0.00 0.00 0.00 0.00 0.00 0.00
0.00 0.00 0.00 0.00 0.00 0.00 0.01 0.04 0.07 0.08 0.09 0.06 0.06 0.05 0.03 0.04 0.03 0.02 0.01 0.01 0.00 0.00 0.00 0.00 0.00 0.00 0.00 0.00 0.00 0.00 0.00 0.00 0.00 0.00 0.00 0.00 0.00 0.00 0.00 0.00 0.00 0.00 0.00 0.00 0.00 0.00 0.00 0.00 0.00
0.00 0.00 0.00 0.00 0.00 0.00 0.02 0.04 0.08 0.10 0.10 0.10 0.11 0.08 0.03 0.02 0.01 0.01 0.01 0.01 0.00 0.00 0.00 0.00 0.00 0.00 0.00 0.00 0.00 0.00 0.00 0.00 0.00 0.00 0.00 0.00 0.00 0.00 0.00 0.00 0.01 0.00 0.00 0.00 0.00 0.00 0.00 0.00 0.00
0.00 0.00 0.00 0.00 0.01 0.01 0.04 0.05 0.07 0.09 0.11 0.10 0.11 0.10 0.05 0.03 0.01 0.01 0.01 0.01 0.01 0.01 0.00 0.00 0.00 0.00 0.00 0.00 0.00 0.00 0.00 0.00 0.00 0.00 0.00 0.00 0.00 0.00 0.00 0.00 0.00 0.00 0.00 0.00 0.00 0.00 0.00 0.00 0.00
0.00 0.00 0.00 0.00 0.01 0.02 0.02 0.03 0.08 0.14 0.09 0.06 0.09 0.13 0.11 0.06 0.03 0.02 0.01 0.01 0.01 0.01 0.01 0.00 0.00 0.01 0.01 0.01 0.00 0.00 0.00 0.00 0.00 0.00 0.00 0.00 0.00 0.01 0.01 0.01 0.01 0.00 0.00 0.00 0.00 0.00 0.00 0.00 0.00
0.00 0.00 0.00 0.00 0.01 0.04 0.04 0.04 0.08 0.14 0.09 0.06 0.07 0.11 0.09 0.07 0.05 0.03 0.01 0.01 0.01 0.02 0.02 0.01 0.01 0.02 0.01 0.01 0.00 0.00 0.00 0.00 0.00 0.00 0.00 0.00 0.01 0.01 0.01 0.01 0.01 0.01 0.01 0.00 0.00 0.00 0.00 0.00 0.01
0.00 0.00 0.00 0.00 0.01 0.04 0.04 0.07 0.08 0.06 0.07 0.07 0.07 0.14 0.14 0.09 0.07 0.04 0.02 0.02 0.02 0.05 0.05 0.05 0.03 0.02 0.01 0.01 0.01 0.01 0.00 0.00 0.00 0.00 0.00 0.00 0.01 0.01 0.02 0.02 0.02 0.02 0.01 0.01 0.01 0.01 0.01 0.01 0.01
0.00 0.00 0.00 0.00 0.01 0.02 0.04 0.09 0.06 0.05 0.08 0.08 0.07 0.11 0.15 0.13 0.08 0.05 0.04 0.03 0.03 0.10 0.10 0.04 0.02 0.01 0.01 0.02 0.01 0.01 0.01 0.01 0.01 0.01 0.01 0.00 0.00 0.00 0.01 0.03 0.04 0.03 0.02 0.02 0.02 0.02 0.01 0.01 0.01
0.00 0.00 0.00 0.00 0.01 0.02 0.03 0.06 0.03 0.04 0.07 0.08 0.08 0.12 0.16 0.21 0.15 0.07 0.06 0.04 0.04 0.05 0.06 0.04 0.03 0.02 0.02 0.02 0.01 0.01 0.01 0.01 0.01 0.00 0.01 0.01 0.01 0.01 0.01 0.02 0.03 0.04 0.03 0.04 0.04 0.03 0.02 0.03 0.01
0.00 0.00 0.00 0.01 0.01 0.02 0.05 0.08 0.09 0.09 0.09 0.10 0.17 0.34 0.24 0.18 0.16 0.09 0.07 0.05 0.05 0.04 0.05 0.04 0.03 0.02 0.02 0.02 0.01 0.01 0.01 0.02 0.01 0.01 0.01 0.01 0.01 0.01 0.01 0.02 0.03 0.04 0.04 0.04 0.04 0.03 0.03 0.03 0.03
0.00 0.00 0.00 0.01 0.03 0.03 0.04 0.06 0.10 0.12 0.13 0.14 0.13 0.20 0.23 0.19 0.14 0.08 0.07 0.06 0.05 0.05 0.05 0.03 0.02 0.03 0.02 0.01 0.01 0.01 0.01 0.02 0.01 0.02 0.03 0.02 0.01 0.02 0.02 0.03 0.04 0.04 0.05 0.05 0.05 0.06 0.07 0.06 0.05
0.00 0.01 0.01 0.01 0.01 0.02 0.04 0.08 0.08 0.07 0.08 0.10 0.08 0.12 0.15 0.25 0.20 0.16 0.12 0.11 0.06 0.05 0.04 0.02 0.02 0.02 0.02 0.01 0.01 0.01 0.01 0.02 0.02 0.02 0.02 0.02 0.02 0.03 0.04 0.05 0.06 0.08 0.09 0.07 0.07 0.09 0.10 0.09 0.06
0.01 0.01 0.01 0.01 0.01 0.02 0.03 0.05 0.05 0.06 0.06 0.07 0.06 0.06 0.11 0.21 0.19 0.18 0.21 0.15 0.09 0.05 0.03 0.02 0.02 0.02 0.01 0.01 0.02 0.01 0.01 0.02 0.02 0.02 0.03 0.04 0.07 0.09 0.08 0.08 0.09 0.10 0.09 0.07 0.07 0.08 0.07 0.05 0.05
0.00 0.01 0.02 0.02 0.01 0.01 0.02 0.06 0.06 0.06 0.06 0.06 0.09 0.08 0.07 0.14 0.14 0.10 0.15 0.17 0.11 0.06 0.04 0.03 0.02 0.02 0.02 0.02 0.02 0.01 0.02 0.03 0.02 0.03 0.04 0.05 0.07 0.09 0.11 0.10 0.10 0.12 0.13 0.12 0.13 0.11 0.07 0.06 0.07
0.00 0.01 0.02 0.03 0.02 0.01 0.02 0.05 0.06 0.06 0.10 0.08 0.09 0.07 0.07 0.13 0.19 0.15 0.10 0.13 0.10 0.08 0.05 0.04 0.03 0.03 0.03 0.02 0.03 0.02 0.02 0.03 0.03 0.04 0.04 0.04 0.03 0.05 0.08 0.10 0.09 0.08 0.09 0.09 0.12 0.13 0.11 0.11 0.07
0.01 0.02 0.03 0.03 0.02 0.03 0.05 0.06 0.05 0.04 0.07 0.09 0.08 0.11 0.11 0.13 0.19 0.22 0.15 0.11 0.12 0.10 0.07 0.06 0.05 0.05 0.04 0.05 0.04 0.04 0.04 0.03 0.03 0.03 0.03 0.03 0.03 0.04 0.09 0.06 0.05 0.05 0.05 0.08 0.07 0.07 0.08 0.12 0.10
0.00 0.01 0.01 0.03 0.02 0.05 0.06 0.06 0.05 0.07 0.08 0.09 0.12 0.14 0.12 0.16 0.18 0.18 0.20 0.16 0.14 0.14 0.11 0.07 0.07 0.06 0.05 0.04 0.04 0.05 0.06 0.05 0.04 0.04 0.04 0.03 0.02 0.02 0.04 0.05 0.06 0.06 0.06 0.07 0.07 0.05 0.04 0.05 0.08
0.00 0.00 0.01 0.01 0.03 0.06 0.06 0.06 0.09 0.11 0.11 0.10 0.11 0.12 0.13 0.17 0.17 0.13 0.16 0.19 0.19 0.17 0.12 0.08 0.08 0.08 0.06 0.05 0.05 0.06 0.06 0.06 0.05 0.05 0.04 0.02 0.02 0.03 0.02 0.03 0.05 0.05 0.06 0.07 0.06 0.05 0.03 0.02 0.03
0.00 0.01 0.01 0.04 0.04 0.07 0.08 0.06 0.07 0.10 0.07 0.08 0.09 0.07 0.09 0.15 0.19 0.27 0.30 0.23 0.22 0.20 0.15 0.09 0.07 0.07 0.07 0.06 0.05 0.05 0.07 0.09 0.09 0.07 0.05 0.05 0.04 0.03 0.02 0.03 0.03 0.03 0.02 0.03 0.03 0.03 0.02 0.01 0.02
0.00 0.01 0.02 0.04 0.05 0.06 0.09 0.10 0.09 0.07 0.07 0.08 0.09 0.07 0.07 0.15 0.21 0.26 0.25 0.21 0.19 0.19 0.15 0.11 0.08 0.07 0.06 0.06 0.06 0.06 0.06 0.06 0.04 0.04 0.06 0.06 0.05 0.03 0.02 0.02 0.02 0.02 0.02 0.02 0.02 0.02 0.02 0.03 0.04
0.01 0.01 0.02 0.02 0.03 0.04 0.06 0.09 0.08 0.09 0.09 0.10 0.13 0.08 0.07 0.09 0.18 0.25 0.21 0.18 0.17 0.18 0.17 0.12 0.08 0.07 0.06 0.05 0.05 0.06 0.05 0.06 0.05 0.06 0.07 0.03 0.02 0.02 0.03 0.03 0.02 0.02 0.01 0.01 0.01 0.02 0.02 0.03 0.04
0.01 0.00 0.01 0.01 0.02 0.03 0.04 0.05 0.05 0.06 0.07 0.08 0.12 0.09 0.07 0.06 0.11 0.16 0.17 0.15 0.12 0.12 0.12 0.10 0.08 0.07 0.06 0.05 0.05 0.04 0.05 0.06 0.06 0.06 0.05 0.04 0.03 0.03 0.02 0.02 0.02 0.02 0.02 0.01 0.01 0.01 0.01 0.02 0.02
0.00 0.00 0.01 0.01 0.01 0.03 0.05 0.04 0.05 0.04 0.05 0.05 0.04 0.05 0.09 0.10 0.09 0.09 0.10 0.09 0.09 0.08 0.07 0.07 0.06 0.05 0.04 0.04 0.03 0.04 0.04 0.04 0.04 0.04 0.04 0.05 0.04 0.03 0.02 0.02 0.03 0.03 0.02 0.01 0.01 0.02 0.02 0.02 0.02
0.00 0.00 0.01 0.01 0.02 0.03 0.03 0.03 0.03 0.03 0.03 0.04 0.03 0.03 0.06 0.10 0.11 0.10 0.08 0.07 0.06 0.05 0.05 0.05 0.05 0.04 0.03 0.03 0.03 0.03 0.03 0.03 0.02 0.02 0.02 0.02 0.02 0.01 0.01 0.01 0.02 0.03 0.02 0.01 0.01 0.01 0.02 0.02 0.02
0.00 0.00 0.00 0.02 0.02 0.02 0.03 0.04 0.03 0.03 0.04 0.03 0.03 0.03 0.05 0.09 0.10 0.08 0.06 0.06 0.04 0.04 0.04 0.03 0.03 0.03 0.03 0.03 0.03 0.03 0.03 0.03 0.02 0.01 0.01 0.01 0.01 0.00 0.01 0.01 0.01 0.01 0.01 0.01 0.01 0.01 0.01 0.02 0.02
0.00 0.00 0.00 0.01 0.03 0.05 0.06 0.07 0.07 0.05 0.06 0.08 0.04 0.04 0.05 0.06 0.07 0.07 0.08 0.07 0.05 0.05 0.05 0.04 0.04 0.04 0.04 0.04 0.04 0.04 0.03 0.03 0.02 0.01 0.01 0.00 0.00 0.00 0.00 0.01 0.00 0.01 0.01 0.01 0.01 0.01 0.02 0.02 0.02
0.00 0.00 0.00 0.01 0.05 0.06 0.05 0.06 0.12 0.08 0.08 0.08 0.06 0.06 0.06 0.06 0.12 0.10 0.09 0.08 0.08 0.07 0.08 0.06 0.06 0.05 0.04 0.04 0.04 0.04 0.04 0.03 0.03 0.02 0.02 0.01 0.00 0.00 0.00 0.00 0.01 0.01 0.01 0.01 0.02 0.02 0.02 0.02 0.02
0.01 0.00 0.01 0.02 0.02 0.05 0.07 0.07 0.07 0.08 0.12 0.10 0.09 0.06 0.06 0.06 0.10 0.10 0.10 0.10 0.12 0.09 0.07 0.05 0.04 0.03 0.04 0.05 0.05 0.04 0.04 0.03 0.03 0.02 0.01 0.01 0.01 0.00 0.01 0.00 0.00 0.00 0.00 0.01 0.02 0.03 0.03 0.02 0.02
0.00 0.01 0.01 0.02 0.02 0.04 0.07 0.08 0.05 0.08 0.14 0.11 0.10 0.09 0.07 0.08 0.10 0.11 0.13 0.14 0.12 0.08 0.05 0.04 0.03 0.03 0.04 0.05 0.06 0.06 0.06 0.05 0.04 0.03 0.02 0.01 0.01 0.01 0.01 0.01 0.00 0.00 0.01 0.01 0.01 0.03 0.03 0.02 0.02
MSLP
1010.74 1011.72 1012.82 1013.81 1014.45 1014.58 1014.15 1013.21 1011.94 1010.60 1009.44 1008.68 1008.42 1008.66 1009.29 1010.12 1010.95 1011.60 1011.97 1012.07 1011.96 1011.78 1011.65 1011.68 1011.91 1012.32 1012.83 1013.34 1013.77 1014.06 1014.22 1014.29 1014.34 1014.44 1014.64 1014.93 1015.29 1015.65 1015.96 1016.16 1016.26 1016.26 1016.22 1016.19 1016.21 1016.29 1016.43 1016.59 1016.72
1011.22 1012.32 1013.44 1014.31 1014.72 1014.55 1013.78 1012.54 1011.04 1009.55 1008.33 1007.59 1007.39 1007.71 1008.42 1009.31 1010.17 1010.84 1011.25 1011.39 1011.36 1011.28 1011.27 1011.43 1011.80 1012.31 1012.90 1013.47 1013.93 1014.24 1014.41 1014.49 1014.54 1014.65 1014.83 1015.10 1015.42 1015.75 1016.01 1016.18 1016.25 1016.25 1016.22 1016.20 1016.24 1016.33 1016.47 1016.61 1016.72
1011.84 1013.02 1014.09 1014.80 1014.97 1014.51 1013.48 1012.01 1010.36 1008.81 1007.62 1006.94 1006.84 1007.25 1008.00 1008.91 1009.76 1010.40 1010.79 1010.93 1010.94 1010.93 1011.02 1011.28 1011.74 1012.34 1012.99 1013.60 1014.08 1014.40 1014.58 1014.67 1014.73 1014.82 1014.99 1015.22 1015.50 1015.78 1016.00 1016.13 1016.19 1016.19 1016.17 1016.18 1016.23 1016.34 1016.47 1016.59 1016.68
1012.51 1013.70 1014.67 1015.20 1015.13 1014.44 1013.21 1011.62 1009.94 1008.44 1007.36 1006.82 1006.84 1007.32 1008.11 1009.00 1009.79 1010.36 1010.68 1010.80 1010.81 1010.83 1010.98 1011.31 1011.83 1012.47 1013.14 1013.75 1014.23 1014.54 1014.72 1014.80 1014.85 1014.94 1015.09 1015.29 1015.53 1015.76 1015.94 1016.05 1016.10 1016.11 1016.11 1016.14 1016.21 1016.32 1016.45 1016.55 1016.62
1013.12 1014.24 1015.05 1015.37 1015.10 1014.24 1012.92 1011.33 1009.74 1008.41 1007.52 1007.16 1007.33 1007.90 1008.70 1009.53 1010.24 1010.71 1010.95 1011.01 1011.00 1011.03 1011.21 1011.57 1012.10 1012.73 1013.37 1013.93 1014.37 1014.64 1014.79 1014.86 1014.91 1014.99 1015.13 1015.32 1015.52 1015.72 1015.87 1015.96 1016.01 1016.03 1016.05 1016.10 1016.19 1016.31 1016.42 1016.51 1016.54
1013.57 1014.53 1015.13 1015.23 1014.78 1013.83 1012.51 1011.05 1009.66 1008.59 1007.97 1007.84 1008.17 1008.81 1009.61 1010.37 1010.97 1011.34 1011.49 1011.50 1011.46 1011.50 1011.68 1012.04 1012.53 1013.11 1013.67 1014.15 1014.50 1014.71 1014.81 1014.86 1014.91 1015.00 1015.14 1015.32 1015.51 1015.68 1015.81 1015.89 1015.93 1015.95 1015.99 1016.06 1016.16 1016.28 1016.38 1016.45 1016.45
1013.76 1014.48 1014.82 1014.71 1014.12 1013.15 1011.93 1010.68 1009.59 1008.84 1008.53 1008.65 1009.14 1009.85 1010.62 1011.30 1011.80 1012.06 1012.14 1012.11 1012.08 1012.12 1012.31 1012.64 1013.08 1013.57 1014.02 1014.38 1014.62 1014.75 1014.80 1014.83 1014.88 1014.98 1015.14 1015.32 1015.51 1015.67 1015.78 1015.83 1015.86 1015.88 1015.92 1016.00 1016.10 1016.22 1016.31 1016.36 1016.34
1013.67 1014.09 1014.16 1013.84 1013.16 1012.22 1011.17 1010.19 1009.44 1009.05 1009.05 1009.41 1010.03 1010.77 1011.50 1012.10 1012.49 1012.67 1012.71 1012.67 1012.66 1012.74 1012.94 1013.26 1013.65 1014.04 1014.37 1014.60 1014.72 1014.76 1014.77 1014.78 1014.85 1014.97 1015.15 1015.36 1015.54 1015.68 1015.76 1015.79 1015.79 1015.79 1015.82 1015.89 1016.00 1016.11 1016.20 1016.23 1016.20
1013.32 1013.45 1013.25 1012.74 1012.00 1011.14 1010.30 1009.62 1009.21 1009.16 1009.44 1009.99 1010.70 1011.44 1012.10 1012.59 1012.89 1013.01 1013.03 1013.02 1013.07 1013.21 1013.45 1013.77 1014.12 1014.43 1014.65 1014.77 1014.80 1014.77 1014.74 1014.75 1014.84 1015.00 1015.20 1015.42 1015.60 1015.72 1015.77 1015.75 1015.71 1015.68 1015.69 1015.75 1015.85 1015.96 1016.04 1016.07 1016.02
1012.81 1012.65 1012.22 1011.58 1010.82 1010.07 1009.45 1009.06 1008.97 1009.21 1009.70 1010.38 1011.11 1011.80 1012.35 1012.73 1012.93 1013.01 1013.03 1013.08 1013.20 1013.43 1013.74 1014.09 1014.42 1014.68 1014.83 1014.87 1014.83 1014.76 1014.72 1014.75 1014.86 1015.05 1015.29 1015.51 1015.68 1015.77 1015.77 1015.71 1015.62 1015.55 1015.53 1015.57 1015.65 1015.76 1015.85 1015.87 1015.82
1012.25 1011.86 1011.26 1010.53 1009.81 1009.19 1008.78 1008.65 1008.82 1009.27 1009.90 1010.61 1011.30 1011.88 1012.30 1012.55 1012.66 1012.69 1012.74 1012.85 1013.06 1013.38 1013.77 1014.16 1014.51 1014.75 1014.87 1014.87 1014.81 1014.74 1014.71 1014.76 1014.91 1015.13 1015.38 1015.61 1015.76 1015.81 1015.77 1015.65 1015.52 1015.41 1015.35 1015.38 1015.45 1015.56 1015.65 1015.67 1015.62
1011.74 1011.20 1010.50 1009.76 1009.11 1008.64 1008.43 1008.52 1008.88 1009.45 1010.13 1010.80 1011.39 1011.82 1012.08 1012.18 1012.19 1012.19 1012.25 1012.41 1012.71 1013.12 1013.58 1014.03 1014.40 1014.65 1014.77 1014.78 1014.73 1014.68 1014.69 1014.78 1014.96 1015.21 1015.47 1015.68 1015.81 1015.83 1015.75 1015.60 1015.43 1015.29 1015.21 1015.22 1015.29 1015.39 1015.48 1015.50 1015.44
1011.37 1010.76 1010.04 1009.35 1008.81 1008.50 1008.47 1008.72 1009.20 1009.82 1010.48 1011.06 1011.49 1011.75 1011.84 1011.80 1011.71 1011.66 1011.72 1011.93 1012.28 1012.75 1013.26 1013.76 1014.16 1014.44 1014.59 1014.63 1014.62 1014.61 1014.67 1014.80 1015.01 1015.27 1015.53 1015.73 1015.83 1015.83 1015.72 1015.56 1015.37 1015.22 1015.14 1015.14 1015.20 1015.30 1015.37 1015.39 1015.32
1011.16 1010.55 1009.89 1009.31 1008.91 1008.77 1008.89 1009.26 1009.80 1010.41 1010.99 1011.44 1011.71 1011.79 1011.72 1011.55 1011.38 1011.29 1011.34 1011.56 1011.93 1012.42 1012.95 1013.46 1013.88 1014.18 1014.37 1014.46 1014.50 1014.55 1014.65 1014.82 1015.05 1015.31 1015.55 1015.73 1015.82 1015.81 1015.70 1015.55 1015.38 1015.24 1015.17 1015.17 1015.23 1015.31 1015.36 1015.36 1015.26
1011.09 1010.54 1009.98 1009.54 1009.31 1009.32 1009.58 1010.03 1010.58 1011.14 1011.61 1011.92 1012.04 1011.98 1011.78 1011.53 1011.30 1011.18 1011.22 1011.42 1011.78 1012.24 1012.75 1013.24 1013.66 1013.98 1014.19 1014.33 1014.43 1014.54 1014.67 1014.86 1015.09 1015.33 1015.55 1015.71 1015.79 1015.78 1015.70 1015.58 1015.46 1015.36 1015.32 1015.33 1015.38 1015.43 1015.46 1015.41 1015.28
1011.09 1010.61 1010.19 1009.92 1009.85 1010.01 1010.38 1010.87 1011.41 1011.90 1012.26 1012.45 1012.44 1012.28 1012.02 1011.73 1011.49 1011.36 1011.38 1011.57 1011.88 1012.29 1012.75 1013.19 1013.57 1013.88 1014.12 1014.29 1014.44 1014.59 1014.76 1014.95 1015.16 1015.37 1015.56 1015.69 1015.76 1015.77 1015.74 1015.67 1015.61 1015.57 1015.57 1015.60 1015.64 1015.66 1015.64 1015.55 1015.38
1011.07 1010.70 1010.42 1010.31 1010.41 1010.70 1011.14 1011.66 1012.16 1012.56 1012.82 1012.90 1012.82 1012.61 1012.34 1012.07 1011.87 1011.77 1011.81 1011.97 1012.23 1012.57 1012.94 1013.31 1013.64 1013.93 1014.18 1014.38 1014.57 1014.75 1014.93 1015.11 1015.29 1015.46 1015.60 1015.70 1015.77 1015.80 1015.82 1015.82 1015.84 1015.87 1015.91 1015.95 1015.98 1015.97 1015.90 1015.76 1015.54
1010.99 1010.72 1010.59 1010.65 1010.90 1011.30 1011.79 1012.29 1012.73 1013.03 1013.18 1013.18 1013.06 1012.86 1012.64 1012.45 1012.33 1012.31 1012.38 1012.54 1012.76 1013.03 1013.31 1013.60 1013.87 1014.13 1014.37 1014.60 1014.82 1015.02 1015.21 1015.37 1015.51 1015.62 1015.70 1015.77 1015.83 1015.88 1015.95 1016.03 1016.11 1016.21 1016.29 1016.35 1016.36 1016.32 1016.21 1016.02 1015.76
1010.83 1010.67 1010.70 1010.92 1011.30 1011.79 1012.30 1012.76 1013.10 1013.29 1013.34 1013.26 1013.12 1012.95 1012.82 1012.75 1012.76 1012.84 1012.99 1013.17 1013.37 1013.58 1013.79 1014.00 1014.22 1014.44 1014.69 1014.93 1015.17 1015.39 1015.58 1015.72 1015.81 1015.87 1015.90 1015.92 1015.96 1016.03 1016.14 1016.27 1016.42 1016.56 1016.68 1016.74 1016.75 1016.67 1016.53 1016.31 1016.03
1010.61 1010.59 1010.78 1011.17 1011.68 1012.24 1012.74 1013.12 1013.34 1013.39 1013.31 1013.15 1012.99 1012.87 1012.84 1012.91 1013.06 1013.29 1013.53 1013.77 1013.98 1014.15 1014.30 1014.46 1014.63 1014.83 1015.07 1015.33 1015.60 1015.84 1016.02 1016.15 1016.20 1016.20 1016.18 1016.16 1016.18 1016.24 1016.37 1016.54 1016.72 1016.90 1017.04 1017.11 1017.10 1017.01 1016.84 1016.60 1016.32
1010.39 1010.55 1010.93 1011.49 1012.13 1012.73 1013.20 1013.48 1013.55 1013.43 1013.20 1012.94 1012.74 1012.65 1012.71 1012.92 1013.23 1013.60 1013.96 1014.27 1014.51 1014.68 1014.80 1014.92 1015.06 1015.25 1015.49 1015.77 1016.06 1016.32 1016.51 1016.62 1016.65 1016.61 1016.54 1016.48 1016.46 1016.51 1016.63 1016.81 1017.01 1017.21 1017.35 1017.42 1017.39 1017.29 1017.11 1016.88 1016.62
1010.26 1010.62 1011.23 1011.97 1012.72 1013.36 1013.78 1013.94 1013.84 1013.53 1013.12 1012.74 1012.47 1012.39 1012.52 1012.84 1013.29 1013.80 1014.28 1014.68 1014.97 1015.15 1015.27 1015.36 1015.48 1015.66 1015.91 1016.20 1016.51 1016.79 1016.99 1017.10 1017.11 1017.04 1016.94 1016.84 1016.78 1016.81 1016.91 1017.07 1017.27 1017.45 1017.58 1017.64 1017.61 1017.49 1017.32 1017.11 1016.88
1010.25 1010.86 1011.70 1012.62 1013.48 1014.14 1014.51 1014.54 1014.25 1013.75 1013.17 1012.64 1012.29 1012.19 1012.36 1012.77 1013.33 1013.96 1014.54 1015.02 1015.37 1015.58 1015.70 1015.79 1015.90 1016.07 1016.31 1016.61 1016.93 1017.22 1017.44 1017.55 1017.55 1017.46 1017.33 1017.21 1017.12 1017.11 1017.18 1017.31 1017.47 1017.62 1017.73 1017.77 1017.72 1017.61 1017.45 1017.26 1017.07
1010.39 1011.25 1012.30 1013.39 1014.35 1015.02 1015.33 1015.23 1014.79 1014.11 1013.36 1012.71 1012.27 1012.13 1012.32 1012.78 1013.42 1014.14 1014.81 1015.37 1015.77 1016.01 1016.14 1016.22 1016.32 1016.47 1016.70 1016.99 1017.30 1017.59 1017.81 1017.92 1017.92 1017.83 1017.69 1017.55 1017.43 1017.39 1017.41 1017.50 1017.61 1017.72 1017.79 1017.80 1017.74 1017.62 1017.47 1017.31 1017.16
1010.66 1011.72 1012.95 1014.17 1015.18 1015.86 1016.10 1015.91 1015.34 1014.53 1013.66 1012.91 1012.41 1012.25 1012.44 1012.93 1013.63 1014.40 1015.14 1015.75 1016.19 1016.46 1016.60 1016.67 1016.75 1016.87 1017.07 1017.33 1017.61 1017.88 1018.09 1018.20 1018.21 1018.12 1017.98 1017.82 1017.69 1017.61 1017.59 1017.63 1017.69 1017.74 1017.76 1017.73 1017.65 1017.52 1017.38 1017.24 1017.12
1010.98 1012.18 1013.52 1014.79 1015.83 1016.48 1016.68 1016.42 1015.78 1014.90 1013.98 1013.19 1012.67 1012.50 1012.71 1013.22 1013.95 1014.77 1015.54 1016.19 1016.65 1016.94 1017.08 1017.14 1017.18 1017.26 1017.41 1017.62 1017.86 1018.09 1018.28 1018.38 1018.38 1018.30 1018.17 1018.01 1017.87 1017.76 1017.70 1017.69 1017.69 1017.68 1017.64 1017.57 1017.46 1017.32 1017.18 1017.04 1016.94
1011.28 1012.53 1013.87 1015.12 1016.12 1016.73 1016.89 1016.60 1015.96 1015.10 1014.21 1013.46 1012.98 1012.85 1013.09 1013.63 1014.38 1015.21 1015.99 1016.65 1017.12 1017.41 1017.55 1017.59 1017.60 1017.63 1017.72 1017.86 1018.04 1018.22 1018.37 1018.44 1018.44 1018.37 1018.24 1018.09 1017.95 1017.83 1017.74 1017.67 1017.61 1017.54 1017.45 1017.33 1017.18 1017.02 1016.86 1016.73 1016.63
1011.49 1012.67 1013.92 1015.07 1015.97 1016.51 1016.64 1016.38 1015.80 1015.04 1014.27 1013.64 1013.27 1013.23 1013.52 1014.08 1014.84 1015.66 1016.44 1017.08 1017.55 1017.83 1017.95 1017.97 1017.95 1017.94 1017.96 1018.04 1018.15 1018.26 1018.36 1018.41 1018.40 1018.33 1018.22 1018.08 1017.94 1017.81 1017.69 1017.58 1017.47 1017.34 1017.19 1017.02 1016.83 1016.64 1016.47 1016.33 1016.22
1011.58 1012.59 1013.64 1014.61 1015.37 1015.83 1015.95 1015.75 1015.29 1014.71 1014.13 1013.70 1013.49 1013.57 1013.93 1014.53 1015.28 1016.07 1016.81 1017.42 1017.86 1018.12 1018.23 1018.24 1018.19 1018.14 1018.11 1018.12 1018.16 1018.22 1018.27 1018.28 1018.26 1018.19 1018.09 1017.97 1017.84 1017.71 1017.57 1017.42 1017.27 1017.09 1016.88 1016.66 1016.44 1016.22 1016.03 1015.87 1015.75
1011.54 1012.31 1013.11 1013.85 1014.43 1014.80 1014.92 1014.81 1014.54 1014.18 1013.85 1013.64 1013.63 1013.86 1014.30 1014.92 1015.64 1016.38 1017.06 1017.61 1018.01 1018.24 1018.34 1018.34 1018.28 1018.20 1018.14 1018.10 1018.09 1018.10 1018.10 1018.09 1018.06 1017.99 1017.91 1017.80 1017.68 1017.54 1017.39 1017.22 1017.02 1016.79 1016.54 1016.28 1016.01 1015.77 1015.56 1015.39 1015.26
Thickness
5806 5808 5808 5797 5774 5755 5757 5781 5800 5805 5808 5819 5826 5819 5809 5801 5792 5781 5801 5808 5804 5798 5793 5790 5787 5784 5781 5778 5775 5772 5770 5767 5765 5763 5761 5759 5757 5755 5753 5751 5750 5748 5746 5745 5743 5742 5740 5739 5737
5804 5806 5797 5780 5756 5742 5756 5787 5797 5805 5812 5820 5821 5817 5808 5800 5807 5801 5801 5802 5801 5796 5792 5788 5785 5782 5779 5776 5772 5770 5767 5765 5762 5760 5758 5756 5754 5752 5751 5749 5747 5745 5744 5742 5741 5739 5738 5737 5735
5802 5801 5781 5763 5751 5748 5766 5792 5802 5812 5819 5816 5810 5812 5806 5800 5805 5802 5802 5801 5797 5793 5790 5786 5783 5780 5776 5773 5770 5767 5765 5762 5760 5757 5755 5753 5751 5750 5748 5746 5744 5743 5741 5739 5738 5737 5736 5734 5733
5794 5783 5771 5755 5753 5769 5782 5795 5804 5806 5810 5811 5805 5797 5803 5811 5810 5806 5802 5799 5794 5790 5787 5784 5781 5777 5774 5770 5768 5765 5762 5759 5757 5755 5752 5750 5748 5747 5745 5743 5742 5740 5739 5737 5736 5735 5733 5732 5731
5784 5767 5754 5746 5756 5778 5793 5801 5806 5800 5802 5804 5803 5787 5787 5804 5810 5805 5800 5796 5792 5787 5784 5780 5777 5774 5771 5768 5765 5762 5759 5757 5754 5752 5749 5747 5745 5743 5742 5740 5739 5738 5736 5735 5734 5733 5731 5730 5728
5764 5754 5739 5737 5756 5781 5794 5802 5803 5799 5798 5800 5798 5786 5781 5796 5800 5798 5797 5792 5789 5785 5781 5777 5773 5770 5767 5764 5761 5759 5756 5754 5751 5749 5746 5744 5742 5740 5739 5737 5736 5735 5733 5732 5731 5730 5729 5727 5726
5755 5745 5739 5748 5758 5772 5791 5802 5798 5795 5792 5796 5799 5782 5778 5787 5794 5796 5793 5788 5785 5781 5777 5773 5770 5767 5764 5761 5758 5755 5752 5750 5748 5745 5743 5741 5739 5737 5735 5734 5733 5731 5730 5729 5728 5727 5726 5725 5724
5763 5747 5745 5749 5758 5767 5790 5797 5798 5796 5792 5802 5799 5782 5775 5785 5791 5791 5787 5782 5779 5776 5773 5770 5766 5763 5760 5757 5754 5751 5749 5746 5744 5742 5739 5737 5735 5733 5732 5730 5729 5728 5727 5725 5724 5723 5722 5722 5721
5767 5739 5733 5749 5761 5770 5786 5787 5793 5800 5795 5793 5795 5794 5793 5793 5789 5783 5776 5772 5770 5769 5767 5765 5763 5759 5756 5753 5750 5748 5745 5743 5740 5738 5736 5734 5731 5729 5728 5727 5725 5724 5723 5722 5721 5720 5719 5718 5718
5753 5732 5746 5767 5776 5777 5782 5784 5787 5787 5781 5779 5783 5788 5790 5787 5781 5775 5769 5766 5764 5763 5761 5761 5759 5756 5753 5750 5747 5744 5741 5739 5736 5734 5732 5731 5728 5725 5724 5722 5721 5720 5718 5718 5717 5716 5715 5714 5714
5754 5747 5762 5773 5782 5782 5780 5783 5787 5780 5770 5775 5777 5779 5781 5779 5775 5771 5767 5765 5763 5762 5760 5758 5756 5753 5750 5747 5743 5740 5737 5734 5732 5730 5728 5726 5723 5721 5719 5717 5716 5715 5713 5713 5712 5711 5710 5709 5708
5754 5762 5770 5774 5783 5781 5778 5780 5777 5778 5777 5786 5786 5784 5778 5772 5770 5768 5764 5761 5760 5758 5757 5755 5753 5750 5747 5743 5740 5736 5733 5730 5727 5725 5723 5720 5717 5715 5713 5712 5710 5709 5707 5706 5705 5704 5704 5703 5703
5751 5759 5771 5776 5777 5777 5777 5773 5772 5773 5781 5784 5782 5777 5773 5769 5766 5764 5762 5758 5756 5754 5752 5751 5750 5747 5743 5740 5736 5733 5729 5726 5723 5720 5718 5715 5712 5709 5708 5706 5705 5703 5701 5700 5699 5697 5696 5696 5697
5755 5761 5766 5770 5772 5774 5770 5767 5767 5765 5776 5774 5771 5768 5767 5765 5763 5760 5757 5754 5751 5749 5748 5748 5745 5742 5739 5736 5732 5729 5726 5722 5719 5716 5712 5710 5706 5703 5701 5699 5698 5696 5695 5693 5691 5689 5688 5688 5689
5759 5753 5755 5762 5766 5767 5767 5753 5757 5765 5768 5765 5763 5762 5761 5759 5758 5755 5754 5752 5748 5745 5744 5743 5740 5738 5735 5732 5728 5725 5721 5717 5713 5710 5707 5704 5701 5698 5695 5693 5690 5688 5686 5685 5683 5682 5681 5680 5681
5748 5739 5732 5751 5761 5765 5755 5733 5752 5763 5760 5756 5756 5755 5753 5752 5752 5751 5751 5749 5745 5742 5739 5738 5736 5732 5729 5726 5722 5719 5715 5712 5707 5704 5700 5697 5694 5691 5689 5686 5683 5681 5679 5676 5674 5672 5671 5671 5671
5727 5720 5724 5739 5757 5758 5748 5733 5747 5756 5755 5750 5750 5750 5747 5745 5744 5746 5747 5744 5740 5739 5735 5731 5729 5725 5722 5720 5716 5713 5709 5705 5701 5697 5693 5690 5688 5685 5682 5679 5676 5673 5671 5668 5666 5664 5662 5662 5663
5713 5719 5724 5728 5746 5749 5740 5735 5744 5749 5750 5746 5746 5745 5742 5739 5739 5740 5740 5738 5735 5733 5729 5726 5723 5720 5717 5714 5710 5706 5701 5697 5694 5690 5686 5683 5681 5678 5675 5671 5668 5665 5661 5659 5658 5656 5655 5655 5655
5728 5724 5722 5731 5747 5741 5734 5733 5738 5742 5742 5740 5738 5738 5736 5734 5734 5734 5733 5732 5728 5724 5722 5720 5717 5714 5711 5706 5701 5697 5692 5689 5686 5683 5679 5676 5673 5670 5667 5663 5660 5657 5654 5651 5650 5648 5647 5646 5647
5730 5721 5720 5730 5743 5738 5728 5729 5736 5737 5738 5739 5736 5734 5732 5729 5727 5728 5727 5726 5722 5719 5715 5713 5711 5708 5705 5702 5698 5693 5688 5683 5679 5676 5672 5669 5666 5663 5660 5656 5652 5649 5646 5644 5642 5641 5638 5637 5637
5727 5722 5722 5724 5731 5733 5724 5716 5724 5730 5735 5734 5734 5733 5730 5727 5723 5722 5721 5719 5717 5714 5711 5709 5706 5703 5700 5697 5693 5687 5681 5675 5670 5667 5663 5661 5658 5656 5652 5649 5646 5642 5639 5636 5634 5633 5630 5628 5628
5718 5735 5733 5728 5714 5703 5712 5691 5712 5722 5724 5726 5726 5728 5728 5727 5723 5720 5718 5715 5713 5711 5708 5705 5702 5698 5694 5691 5686 5680 5672 5666 5663 5660 5657 5655 5652 5649 5645 5642 5638 5634 5631 5629 5627 5625 5623 5621 5619
5732 5741 5733 5725 5711 5699 5703 5691 5700 5715 5714 5720 5724 5726 5727 5727 5724 5720 5716 5712 5710 5707 5702 5699 5696 5692 5688 5684 5680 5674 5667 5663 5658 5654 5650 5647 5644 5641 5638 5635 5631 5627 5625 5622 5620 5618 5616 5614 5613
5743 5733 5722 5710 5696 5681 5694 5690 5692 5705 5714 5719 5724 5726 5726 5725 5721 5717 5713 5708 5704 5701 5697 5693 5689 5685 5682 5678 5673 5668 5663 5658 5653 5648 5644 5639 5636 5633 5631 5628 5624 5621 5618 5616 5614 5612 5610 5608 5607
5732 5705 5681 5676 5668 5674 5695 5691 5693 5715 5724 5726 5726 5725 5724 5721 5716 5711 5707 5702 5699 5695 5692 5688 5683 5678 5676 5673 5668 5663 5659 5654 5649 5644 5639 5634 5630 5627 5624 5622 5619 5616 5613 5611 5609 5606 5604 5603 5602
5724 5708 5677 5663 5661 5671 5688 5686 5698 5717 5726 5728 5727 5724 5720 5715 5712 5708 5703 5699 5695 5691 5687 5683 5679 5674 5670 5666 5662 5658 5654 5649 5645 5641 5636 5631 5627 5623 5620 5617 5615 5612 5610 5607 5604 5602 5600 5599 5598
5719 5707 5703 5679 5673 5666 5675 5690 5703 5715 5717 5717 5717 5715 5711 5709 5707 5704 5700 5696 5692 5687 5683 5680 5674 5669 5665 5662 5658 5654 5649 5645 5641 5637 5633 5628 5625 5621 5617 5614 5611 5608 5605 5603 5600 5597 5596 5594 5594
5727 5714 5691 5677 5661 5656 5671 5680 5684 5697 5703 5708 5708 5706 5705 5706 5703 5700 5696 5691 5687 5683 5679 5675 5670 5665 5661 5657 5654 5650 5645 5641 5637 5632 5627 5624 5621 5618 5614 5610 5607 5605 5602 5599 5596 5594 5592 5590 5589
5715 5707 5691 5675 5671 5656 5653 5670 5702 5701 5702 5702 5704 5706 5704 5700 5697 5694 5690 5686 5681 5677 5672 5668 5664 5660 5657 5653 5650 5646 5641 5637 5633 5628 5624 5620 5617 5614 5610 5607 5604 5601 5598 5595 5592 5590 5588 5586 5585
5717 5706 5691 5671 5666 5664 5656 5670 5708 5705 5704 5701 5701 5702 5699 5696 5691 5688 5685 5681 5675 5670 5666 5663 5660 5656 5653 5649 5645 5641 5637 5633 5628 5624 5621 5617 5613 5610 5607 5604 5601 5598 5595 5592 5589 5586 5584 5582 5581